• In Hungary
  • List of Countries
  • For 7 days
  • Water Temperature
  • Satellite Maps
  • Weather Map
  • News
  • Weather Widgets
  • user-avatar
    Login

    Hourly Weather Rakoszyn

    Today, 18 November, Saturday

    Time Temperature Precipitation Wind Pressure Humidity
    00:00 +3°C° 0.1 mm 2 mps 742 mmHg 94%
    01:00 +3°C° 0 mm 2 mps 742 mmHg 94%
    02:00 +3°C° 0 mm 2 mps 742 mmHg 94%
    03:00 +3°C° 0 mm 2 mps 742 mmHg 94%
    04:00 +3°C° 0 mm 1 mps 741 mmHg 94%
    05:00 +3°C° 0 mm 1 mps 741 mmHg 93%
    06:00 +3°C° 0 mm 1 mps 741 mmHg 92%
    07:00 +3°C° 0 mm 1 mps 741 mmHg 91%
    08:00 +4°C° 0 mm 1 mps 741 mmHg 85%
    09:00 +3°C° 0 mm 2 mps 740 mmHg 79%
    10:00 +4°C° 0 mm 2 mps 740 mmHg 73%
    11:00 +4°C° 0 mm 2 mps 740 mmHg 70%
    12:00 +3°C° 0 mm 3 mps 739 mmHg 68%
    13:00 +4°C° 0 mm 3 mps 738 mmHg 65%
    14:00 +3°C° 0 mm 3 mps 738 mmHg 68%
    15:00 +2°C° 0 mm 3 mps 737 mmHg 71%
    16:00 +2°C° 0 mm 3 mps 737 mmHg 74%
    17:00 +1°C° 0 mm 3 mps 737 mmHg 75%
    18:00 +1°C° 0 mm 3 mps 736 mmHg 77%
    19:00 0°C° 0 mm 4 mps 736 mmHg 78%
    20:00 0°C° 0 mm 4 mps 735 mmHg 78%
    21:00 0°C° 0 mm 4 mps 735 mmHg 78%
    22:00 +1°C° 0 mm 5 mps 735 mmHg 78%
    23:00 0°C° 0.1 mm 5 mps 734 mmHg 78%

    Tomorrow, 19 November, Sunday

    Time Temperature Precipitation Wind Pressure Humidity
    00:00 0°C° 0.1 mm 5 mps 734 mmHg 78%
    01:00 -1°C° 0.1 mm 6 mps 734 mmHg 79%
    02:00 0°C° 0.1 mm 5 mps 733 mmHg 80%
    03:00 0°C° 0.1 mm 5 mps 733 mmHg 81%
    04:00 0°C° 0.1 mm 5 mps 733 mmHg 82%
    05:00 0°C° 0 mm 5 mps 733 mmHg 84%
    06:00 -1°C° 0 mm 5 mps 733 mmHg 85%
    07:00 -1°C° 0 mm 4 mps 733 mmHg 87%
    08:00 0°C° 0 mm 5 mps 733 mmHg 82%
    09:00 +1°C° 0 mm 6 mps 733 mmHg 76%
    10:00 +2°C° 0 mm 6 mps 733 mmHg 71%
    11:00 +2°C° 0 mm 6 mps 733 mmHg 68%
    12:00 +3°C° 0 mm 6 mps 732 mmHg 66%
    13:00 +3°C° 0 mm 6 mps 732 mmHg 63%
    14:00 +2°C° 0 mm 6 mps 732 mmHg 66%
    15:00 +2°C° 0 mm 5 mps 732 mmHg 70%
    16:00 +1°C° 0 mm 5 mps 732 mmHg 73%
    17:00 +1°C° 0.1 mm 5 mps 732 mmHg 74%
    18:00 +1°C° 0.1 mm 6 mps 732 mmHg 76%
    19:00 +1°C° 0.1 mm 6 mps 732 mmHg 77%
    20:00 +1°C° 0.2 mm 6 mps 732 mmHg 78%
    21:00 +1°C° 0.2 mm 6 mps 732 mmHg 79%
    22:00 +1°C° 0.2 mm 6 mps 732 mmHg 80%
    23:00 +1°C° 0 mm 6 mps 732 mmHg 81%

    Day after tomorrow, 20 November, Monday

    Time Temperature Precipitation Wind Pressure Humidity
    00:00 -1°C° 0 mm 6 mps 732 mmHg 82%
    01:00 0°C° 0 mm 5 mps 732 mmHg 83%
    02:00 -1°C° 0.1 mm 6 mps 732 mmHg 83%
    03:00 -1°C° 0.1 mm 6 mps 732 mmHg 82%
    04:00 -1°C° 0.1 mm 7 mps 732 mmHg 82%
    05:00 -1°C° 0.1 mm 7 mps 732 mmHg 82%
    06:00 -1°C° 0.1 mm 7 mps 732 mmHg 83%
    07:00 -2°C° 0.1 mm 7 mps 733 mmHg 84%
    08:00 -1°C° 0.1 mm 7 mps 733 mmHg 81%
    09:00 -1°C° 0.1 mm 7 mps 734 mmHg 77%
    10:00 0°C° 0.1 mm 8 mps 734 mmHg 74%
    11:00 0°C° 0 mm 7 mps 735 mmHg 73%
    12:00 0°C° 0 mm 7 mps 735 mmHg 72%
    13:00 +2°C° 0 mm 7 mps 735 mmHg 71%
    14:00 +1°C° 0 mm 6 mps 735 mmHg 73%
    15:00 +1°C° 0 mm 5 mps 736 mmHg 76%
    16:00 0°C° 0 mm 4 mps 736 mmHg 78%
    17:00 0°C° 0 mm 4 mps 736 mmHg 81%
    18:00 0°C° 0 mm 4 mps 736 mmHg 84%
    19:00 0°C° 0 mm 3 mps 736 mmHg 87%
    20:00 0°C° 0 mm 3 mps 736 mmHg 88%
    21:00 0°C° 0 mm 3 mps 736 mmHg 90%
    22:00 0°C° 0 mm 3 mps 736 mmHg 91%
    23:00 0°C° 0 mm 3 mps 735 mmHg 92%

    21 November, Tuesday

    Time Temperature Precipitation Wind Pressure Humidity
    00:00 0°C° 0 mm 3 mps 735 mmHg 93%
    01:00 +1°C° 0 mm 2 mps 735 mmHg 93%
    02:00 +1°C° 0.2 mm 2 mps 734 mmHg 94%
    03:00 +1°C° 0.2 mm 2 mps 734 mmHg 94%
    04:00 +1°C° 0.2 mm 2 mps 733 mmHg 94%
    05:00 +2°C° 0.3 mm 1 mps 733 mmHg 94%
    06:00 +2°C° 0.3 mm 1 mps 733 mmHg 94%
    07:00 +2°C° 0.3 mm 1 mps 733 mmHg 94%
    08:00 +3°C° 0.1 mm 1 mps 733 mmHg 92%
    09:00 +3°C° 0.1 mm 1 mps 733 mmHg 91%
    10:00 +4°C° 0.1 mm 1 mps 733 mmHg 89%
    11:00 +4°C° 0 mm 1 mps 734 mmHg 87%
    12:00 +5°C° 0 mm 1 mps 734 mmHg 84%
    13:00 +4°C° 0 mm 0 mps 734 mmHg 82%
    14:00 +4°C° 0 mm 1 mps 734 mmHg 84%
    15:00 +4°C° 0 mm 1 mps 735 mmHg 85%
    16:00 +4°C° 0 mm 1 mps 735 mmHg 87%
    17:00 +4°C° 0 mm 1 mps 736 mmHg 87%
    18:00 +4°C° 0 mm 1 mps 736 mmHg 88%
    19:00 +4°C° 0 mm 1 mps 737 mmHg 88%
    20:00 +3°C° 0 mm 1 mps 737 mmHg 89%
    21:00 +3°C° 0 mm 1 mps 738 mmHg 90%
    22:00 +2°C° 0 mm 1 mps 738 mmHg 91%
    23:00 +2°C° 0 mm 1 mps 738 mmHg 92%

    22 November, Wednesday

    Time Temperature Precipitation Wind Pressure Humidity
    00:00 +2°C° 0 mm 1 mps 739 mmHg 92%
    01:00 +1°C° 0 mm 1 mps 739 mmHg 92%
    02:00 +1°C° 0 mm 1 mps 739 mmHg 92%
    03:00 +1°C° 0 mm 1 mps 739 mmHg 92%
    04:00 0°C° 0 mm 0 mps 739 mmHg 92%
    05:00 +1°C° 0 mm 1 mps 739 mmHg 92%
    06:00 +1°C° 0 mm 1 mps 739 mmHg 92%
    07:00 -1°C° 0 mm 2 mps 740 mmHg 91%
    08:00 +1°C° 0 mm 2 mps 740 mmHg 88%
    09:00 +1°C° 0 mm 3 mps 740 mmHg 85%
    10:00 +2°C° 0 mm 3 mps 740 mmHg 82%
    11:00 +2°C° 0 mm 3 mps 739 mmHg 81%
    12:00 +3°C° 0 mm 3 mps 739 mmHg 80%
    13:00 +4°C° 0 mm 4 mps 739 mmHg 79%
    14:00 +4°C° 0 mm 3 mps 739 mmHg 83%
    15:00 +3°C° 0 mm 3 mps 739 mmHg 86%
    16:00 +3°C° 0 mm 3 mps 738 mmHg 90%
    17:00 +3°C° 0 mm 3 mps 739 mmHg 91%
    18:00 +3°C° 0 mm 3 mps 739 mmHg 92%
    19:00 +3°C° 0 mm 3 mps 739 mmHg 93%
    20:00 +3°C° 0 mm 3 mps 739 mmHg 93%
    21:00 +3°C° 0 mm 3 mps 739 mmHg 92%
    22:00 +3°C° 0 mm 3 mps 739 mmHg 92%
    23:00 +2°C° 0 mm 3 mps 739 mmHg 92%

    23 November, Thursday

    Time Temperature Precipitation Wind Pressure Humidity
    00:00 +2°C° 0 mm 3 mps 740 mmHg 91%
    01:00 +2°C° 0 mm 3 mps 740 mmHg 91%
    02:00 +2°C° 0 mm 3 mps 740 mmHg 91%
    03:00 +2°C° 0 mm 3 mps 740 mmHg 91%
    04:00 +2°C° 0 mm 3 mps 739 mmHg 91%
    05:00 +2°C° 0 mm 3 mps 740 mmHg 90%
    06:00 +2°C° 0 mm 3 mps 740 mmHg 90%
    07:00 +2°C° 0 mm 3 mps 740 mmHg 89%
    08:00 +3°C° 0 mm 3 mps 740 mmHg 85%
    09:00 +4°C° 0 mm 3 mps 740 mmHg 81%
    10:00 +5°C° 0 mm 3 mps 740 mmHg 76%
    11:00 +7°C° 0 mm 3 mps 740 mmHg 75%
    12:00 +8°C° 0 mm 3 mps 740 mmHg 73%
    13:00 +9°C° 0 mm 3 mps 740 mmHg 71%
    14:00 +8°C° 0 mm 2 mps 740 mmHg 76%
    15:00 +7°C° 0 mm 2 mps 740 mmHg 81%
    16:00 +6°C° 0 mm 2 mps 740 mmHg 86%
    17:00 +5°C° 0 mm 2 mps 740 mmHg 88%
    18:00 +5°C° 0 mm 2 mps 740 mmHg 89%
    19:00 +4°C° 0 mm 2 mps 740 mmHg 91%
    20:00 +4°C° 0 mm 2 mps 740 mmHg 90%
    21:00 +4°C° 0 mm 2 mps 740 mmHg 90%
    22:00 +4°C° 0 mm 2 mps 740 mmHg 90%
    23:00 +4°C° 0 mm 2 mps 740 mmHg 90%
    Show more